Flag for Uruguay Weather past 2 weeks in Maldonado, Uruguay

Now
57 °F

Clear.


Feels Like: 56 °F
Forecast: 56 / 76 °F
Wind: 6 mph from Northwest

Location: Capitan Corbeta

Current Time: Apr 25, 2015 at 6:15:34 AM

Latest Report: Apr 25, 2015 at 5:00 AM


Visibility: 10 mi

Pressure: 30.09 "Hg

Humidity: 72%

Dew point: 48 °F

Location of MaldonadoLocation

Historic Weather in Maldonado — Graph

°F

Maldonado temperature yesterday

Maximum temperature yesterday: 75 °F (at 1:00 PM)
Minimum temperature yesterday: 50 °F (at 4:00 AM)
Average temperature yesterday: 61 °F

Past Weeks' High & Low Weather Summary

 TemperatureHumidityPressure
High84 °F (Apr 10, 12:00 PM)100% (Apr 12, 7:00 AM)30.21 "Hg (Apr 12, 7:00 AM)
Low43 °F (Apr 12, 7:00 AM)28% (Apr 19, 2:00 PM)29.77 "Hg (Apr 19, 2:00 PM)
Average64 °F69%30.01 "Hg
* Reported Apr 10 5:00 AM — Apr 25 5:00 AM, Maldonado, Weather by CustomWeather, © 2015

Note: Actual official high and low records may vary slightly from our data, if they occured in-between our weather recording intervals... More about our weather records

Advertising

Maldonado weather history for previous 24 hours

 ConditionsComfort  
Time TempWeatherWind HumidityBarometerVisibility
5:00 AM
Sat, Apr 25
57 °FClear.6 mph72%30.09 "Hg10 mi
4:00 AM57 °FClear.6 mph72%30.09 "Hg10 mi
3:00 AM59 °FClear.6 mph68%30.09 "HgN/A
2:00 AM55 °FClear.6 mph77%30.09 "HgN/A
1:00 AM55 °FClear.6 mph77%30.09 "HgN/A
12:00 AM55 °FClear.5 mph77%30.09 "Hg10 mi
11:00 PM
Fri, Apr 24
55 °FClear.5 mph77%30.09 "Hg10 mi
10:00 PM55 °FClear.3 mph77%30.09 "Hg10 mi
9:00 PM59 °FClear.3 mph77%30.12 "Hg10 mi
8:00 PM59 °FClear.No wind68%30.12 "Hg10 mi
7:00 PM63 °FClear.No wind68%30.09 "Hg5 mi
6:00 PM68 °FClear.5 mph46%30.09 "Hg5 mi
5:00 PM73 °FSunny.6 mph36%30.09 "Hg10 mi
4:00 PM75 °FSunny.8 mph31%30.09 "Hg10 mi
3:00 PM75 °FClear.12 mph31%30.09 "HgN/A
2:00 PM75 °FSunny.12 mph34%30.09 "Hg10 mi
1:00 PM75 °FSunny.8 mph36%30.12 "Hg10 mi
12:00 PM72 °FSunny.7 mph41%30.12 "Hg10 mi
11:00 AM72 °FSunny.6 mph44%30.12 "Hg10 mi
10:00 AM68 °FSunny.6 mph64%30.15 "Hg10 mi
9:00 AM59 °FSunny.No wind82%30.12 "Hg10 mi
8:00 AM52 °FSunny.5 mph88%30.12 "Hg10 mi
7:00 AM52 °FSunny.3 mph88%30.09 "Hg10 mi
6:00 AM52 °FClear.5 mph88%30.09 "Hg10 mi
Weather by CustomWeather, © 2015

See weather overviewHow to use our weather pages